This is the latest recevied weather packets stored in our database for station/object WW3TRG. If no packets are shown the sender has not sent any weather packets the latest 10 day(s).
| Time | Temp. | Humidity | Pressure | Rain* | Wind** | Luminosity | Snow |
|---|---|---|---|---|---|---|---|
| 1778101972 | 18.33° C | 95% | 1005.7 hPa | 0 mm | - | 172 W/m² | - |
| 1778101669 | 17.78° C | 95% | 1005.7 hPa | 0 mm | - | 138 W/m² | - |
| 1778101365 | 17.78° C | 96% | 1005.6 hPa | 0 mm | - | 131 W/m² | - |
| 1778101063 | 17.22° C | 96% | 1005.6 hPa | 0 mm | - | 133 W/m² | - |
| 1778100758 | 17.22° C | 98% | 1005.5 hPa | 0 mm | - | 111 W/m² | - |
| 1778100455 | 16.67° C | 98% | 1005.7 hPa | 0 mm | - | 106 W/m² | - |
| 1778100153 | 16.67° C | 99% | 1005.9 hPa | 0 mm | - | 89 W/m² | - |
| 1778099851 | 16.67° C | 99% | 1005.6 hPa | 0 mm | - | 51 W/m² | - |
| 1778099547 | 16.67° C | 99% | 1005.8 hPa | 0 mm | - | 78 W/m² | - |
| 1778099245 | 16.67° C | 99% | 1005.7 hPa | 0 mm | - | 73 W/m² | - |
| 1778098941 | 16.67° C | 99% | 1005.8 hPa | 0 mm | - | 57 W/m² | - |
| 1778098638 | 16.67° C | 99% | 1005.7 hPa | 0 mm | - | 50 W/m² | - |
| 1778098335 | 16.11° C | 99% | 1005.5 hPa | 0 mm | - | 89 W/m² | - |
| 1778098032 | 16.67° C | 99% | 1005.8 hPa | 0 mm | - | 51 W/m² | - |
| 1778097729 | 16.67° C | 99% | 1005.4 hPa | 0 mm | - | 51 W/m² | - |
| 1778097425 | 16.67° C | 99% | 1005.6 hPa | 0 mm | - | 61 W/m² | - |
| 1778097122 | 16.67° C | 99% | 1005.7 hPa | 0 mm | - | 57 W/m² | - |
| 1778096819 | 16.11° C | 99% | 1006 hPa | 0 mm | - | 37 W/m² | - |
| 1778096515 | 16.11° C | 99% | 1005.9 hPa | 0 mm | - | 64 W/m² | - |
| 1778096213 | 16.11° C | 99% | 1006 hPa | 0 mm | - | 55 W/m² | - |
| 1778095910 | 16.11° C | 99% | 1005.9 hPa | 0 mm | - | 44 W/m² | - |
| 1778095606 | 16.11° C | 99% | 1006 hPa | 0 mm | - | 57 W/m² | - |
| 1778095302 | 16.11° C | 99% | 1005.9 hPa | 0 mm | - | 59 W/m² | - |
| 1778095000 | 16.11° C | 99% | 1006 hPa | 0 mm | - | 100 W/m² | - |
| 1778094696 | 16.11° C | 99% | 1006 hPa | 0 mm | - | 97 W/m² | - |
* Rain latest hour (hover to see other rain measurements)
** Current wind speed in m/s (hover to see current wind gust speed)